TimeMST,TemperatureF,Dew PointF,Humidity,Sea Level PressureIn,VisibilityMPH,Wind Direction,Wind SpeedMPH,Gust SpeedMPH,PrecipitationIn,Events,Conditions,WindDirDegrees,DateUTC
12:53 AM,33.1,17.1,52,30.09,10.0,South,19.6,-,N/A,,Clear,190,2011-12-26 07:53:00
1:53 AM,35.1,15.1,44,30.05,10.0,SSW,18.4,-,N/A,,Clear,200,2011-12-26 08:53:00
2:53 AM,34.0,15.1,46,30.01,10.0,South,17.3,-,N/A,,Clear,190,2011-12-26 09:53:00
4:00 AM,30.2,15.8,55,29.95,10.0,West,12.7,-,N/A,,Clear,270,2011-12-26 11:00:00
4:53 AM,21.9,12.9,68,30.04,10.0,West,10.4,-,N/A,,Clear,260,2011-12-26 11:53:00
5:53 AM,23.0,12.9,65,30.01,10.0,SW,10.4,-,N/A,,Clear,230,2011-12-26 12:53:00
6:30 AM,19.4,12.2,74,29.91,10.0,WSW,8.1,-,N/A,,Clear,250,2011-12-26 13:30:00
6:53 AM,19.9,12.0,71,30.01,10.0,SW,9.2,-,N/A,,Clear,220,2011-12-26 13:53:00
7:53 AM,25.0,14.0,63,30.04,10.0,West,13.8,-,N/A,,Clear,280,2011-12-26 14:53:00
8:53 AM,21.9,14.0,72,30.07,10.0,West,15.0,-,N/A,,Clear,280,2011-12-26 15:53:00
9:53 AM,37.9,17.1,43,30.02,10.0,NNW,16.1,23.0,N/A,,Clear,340,2011-12-26 16:53:00
10:53 AM,44.1,19.9,38,30.01,10.0,NNW,19.6,-,N/A,,Clear,330,2011-12-26 17:53:00
11:53 AM,46.0,17.1,31,30.01,10.0,NNW,27.6,40.3,N/A,,Clear,340,2011-12-26 18:53:00
12:53 PM,46.0,16.0,30,29.98,10.0,NNW,31.1,39.1,N/A,,Clear,340,2011-12-26 19:53:00
1:53 PM,45.0,16.0,31,30.00,10.0,North,31.1,46.0,N/A,,Clear,350,2011-12-26 20:53:00
2:53 PM,43.0,17.1,35,30.04,10.0,North,28.8,38.0,N/A,,Clear,360,2011-12-26 21:53:00
3:53 PM,39.9,17.1,40,30.09,10.0,North,17.3,-,N/A,,Clear,360,2011-12-26 22:53:00
4:53 PM,36.0,17.1,46,30.15,10.0,North,17.3,-,N/A,,Clear,10,2011-12-26 23:53:00
5:53 PM,32.0,18.0,56,30.20,10.0,NNW,12.7,-,N/A,,Clear,340,2011-12-27 00:53:00
6:53 PM,28.0,17.1,63,30.26,10.0,North,12.7,-,N/A,,Clear,350,2011-12-27 01:53:00
7:53 PM,30.0,18.0,61,30.22,10.0,North,20.7,-,N/A,,Clear,360,2011-12-27 02:53:00
8:53 PM,28.9,16.0,58,30.26,10.0,North,17.3,-,N/A,,Clear,10,2011-12-27 03:53:00
9:53 PM,30.0,16.0,56,30.21,10.0,WNW,8.1,-,N/A,,Clear,290,2011-12-27 04:53:00
10:53 PM,27.0,15.1,61,30.22,10.0,West,9.2,-,N/A,,Clear,270,2011-12-27 05:53:00
11:53 PM,23.0,16.0,74,30.22,10.0,WSW,5.8,-,N/A,,Clear,250,2011-12-27 06:53:00